Regional Weather Roundup
Issued by NWS Wakefield, VA

Home | Current Version | Previous Version | Text Only | Print | Product List | Glossary On
Versions: 1 2 3 4 5 6 7 8 9 10 11 12 13 14 15 16 17 18 19 20 21 22 23 24 25 26 27
000
ASUS41 KAKQ 190910
RWRAKQ

REGIONAL WEATHER ROUNDUP
NATIONAL WEATHER SERVICE WAKEFIELD VA
500 AM EDT SAT APR 19 2014

Note: "fair" indicates few or no clouds below 12,000 feet with no
significant weather and/or obstructions to visibility. * = Denotes
station may not report precipitation (e.g., rain,snow,etc.),
thunder or fog.

VAZ042-051-052>054-056-191000-
NORTHERN VIRGINIA

CITY           SKY/WX    TMP DP  RH WIND       PRES   REMARKS
WASH NATIONAL  CLOUDY    48  39  71 CALM      30.24S
DULLES         CLOUDY    40  36  86 CALM      30.23S
FORT BELVOIR   CLOUDY    40  39  95 CALM      30.25R
QUANTICO       CLOUDY    44  39  82 NW5       30.25R
FREDERICKSBRG* CLOUDY    45  41  87 CALM      30.22F
STAFFORD*      CLOUDY    40  40 100 CALM      30.27F
WARRENTON      CLOUDY    41  41 100 CALM      30.22R
CULPEPER*      CLOUDY    43  43 100 CALM      30.24R
MANASSAS*      CLOUDY    41  39  93 CALM      30.23S
LEESBURG*      CLOUDY    41  39  93 CALM      30.24S
WINCHESTER     CLOUDY    43  36  75 CALM      30.23R
$$

VAZ048-049-060>072-079>083-191000-
CENTRAL AND SOUTH CENTRAL VIRGINIA...AND NORTH CENTRAL NORTH CAROLINA

CITY           SKY/WX    TMP DP  RH WIND       PRES   REMARKS
RICHMOND       CLOUDY    47  42  83 CALM      30.23S
CHESTERFIELD*  NOT AVBL
HANOVER        CLOUDY    45  42  89 CALM      30.24S
TAPPAHANNOCK*  CLOUDY    45  41  86 CALM      30.24S
CHARLOTTSVILLE CLOUDY    44  38  79 CALM      30.21S
ORANGE*        CLOUDY    41  37  87 CALM      30.23S
LOUISA*        CLOUDY    43  39  87 CALM      30.21S
FARMVILLE*     CLOUDY    46  41  81 CALM      30.20S
SOUTH HILL*    LGT RAIN  46  46 100 CALM      30.26S
ROANOKE RAPIDS RAIN      45  45 100 CALM      30.20F
RALEIGH        LGT RAIN  47  45  93 NE8       30.16F
$$

VAZ088>098-191000-
SOUTHEAST VIRGINIA

CITY           SKY/WX    TMP DP  RH WIND       PRES   REMARKS
NORFOLK        LGT RAIN  47  42  83 NE12      30.21F
VIRGINIA BEACH LGT RAIN  47  43  86 NE8       30.21S
NORFOLK NAVAL  LGT RAIN  48  43  82 NE12      30.23F
WEST POINT*    CLOUDY    47  43  85 CALM      30.25F
NEWPORT NEWS   LGT RAIN  49  44  83 E3        30.22S
LANGLEY AFB    CLOUDY    47  47  99 NE6       30.23F
FORT EUSTIS    CLOUDY    47  45  93 E3        30.21S
WILLIAMSBURG*  CLOUDY    48  46  93 CALM      30.23F
FRANKLIN*      CLOUDY    46 N/A N/A N3        30.22S
WAKEFIELD      LGT RAIN  46  44  93 CALM      30.23R
$$

VAZ020-022-025-037-045-191000-
WESTERN AND SOUTHWEST VIRGINIA

CITY           SKY/WX    TMP DP  RH WIND       PRES   REMARKS
STAUNTON*      CLOUDY    39  37  89 CALM      30.22S
HOT SPRINGS VA CLOUDY    48  30  49 N5        30.24S
LYNCHBURG      CLOUDY    51  42  71 CALM      30.21S
DANVILLE       LGT RAIN  47  44  90 NE6       30.21S
MARTINSVILLE   LGT RAIN  47  45  92 CALM      30.22S
ROANOKE        CLOUDY    46  40  79 CALM      30.22F
BLACKSBURG     CLOUDY    45  43  93 CALM      30.21S
DUBLIN*        CLOUDY    44  41  90 CALM      30.20S
MARION*        CLOUDY    46  37  72 E3        30.21S
HILLSVILLE*    DRIZZLE   45  37  76 N5        30.21S
RICHLANDS*     CLOUDY    54  32  43 NE7       30.17S
WISE*          CLOUDY    52  34  50 N6        30.18S
ABINGDON*      CLOUDY    53  35  52 E7        30.15F
$$

MDZ021>025-VAZ099-100-191000-
SOUTHERN MARYLAND AND THE DELMARVA PENINSULA

CITY           SKY/WX    TMP DP  RH WIND       PRES   REMARKS
PATUXENT RIVER CLOUDY    44  41  89 CALM      30.24S
BAY BRIDGE APT CLOUDY    43  43 100 CALM      30.25R
LEONARDTOWN    CLOUDY    43  39  87 CALM      30.25S
DOVER          CLOUDY    39  39 100 N2        30.22R
GEORGETOWN     CLOUDY    41  38  89 CALM      30.26R
EASTON         CLOUDY    43  43 100 CALM      30.29R
CAMBRIDGE      CLOUDY    43  37  81 CALM      30.25R
SALISBURY      CLOUDY    44  40  85 CALM      30.24S
OCEAN CITY     CLOUDY    43  41  93 CALM      30.24F
WALLOPS ISLAND CLOUDY    46  41  82 CALM      30.24F
ACCOMACK*      CLOUDY    43  39  87 CALM      30.24S
$$

NCZ012>017-030>032-191000-
EASTERN NORTH CAROLINA

CITY           SKY/WX    TMP DP  RH WIND       PRES   REMARKS
ELIZABETH CITY LGT RAIN  47  44  90 N13       30.19S
AHOSKIE*       CLOUDY    46  43  90 N6        30.20F
EDENTON*       DRIZZLE   46  45  95 N9        30.18R
CURRITUCK*     RAIN      47  45  90 N13       30.20S
KILL DEVIL HLS CLOUDY    47  46  93 N9        30.15F
MANTEO         CLOUDY    47  46  95 NE12      30.16F
CAPE HATTERAS  CLOUDY    51  51 100 NE14G21   30.11F
GOLDSBORO      LGT RAIN  47  47  98 NE8       30.10F
WASHINGTON     CLOUDY    47  42  85 N10       30.15F
GREENVILLE     RAIN      46  45  93 NE12      30.16F
NEW BERN       RAIN      51  48  89 N10       30.12F FOG
WILMINGTON     HVY RAIN  53  51  93 NW10      30.02S FOG
$$

VAZ048-191000-
ELSEWHERE

CITY           SKY/WX    TMP DP  RH WIND       PRES   REMARKS
HARRISBURG PA  MOCLDY    42  35  76 CALM      30.25R
BALTIMORE      CLOUDY    41  36  82 CALM      30.23S
ANNAPOLIS      CLOUDY    46  40  79 CALM      30.24S
ANDREWS AFB    CLOUDY    40  37  89 CALM      30.23S
WILMINGTON DE  CLOUDY    42  38  85 CALM      30.26F
PHILADELPHIA   CLOUDY    43  37  79 SW3       30.25F
WILDWOOD NJ*   MOCLDY    39  36  87 CALM      30.27R
ATLANTIC CITY  CLOUDY    36  34  92 NE3       30.26S
HENDERSON NC   LGT RAIN  46  44  95 NE5       30.20R
GREENSBORO     LGT RAIN  46  44  93 NE12      30.16F FOG
ROCKY MOUNT    LGT RAIN  47  44  90 N13       30.16F
FAYETTEVILLE   RAIN      50  48  93 N18       30.09S FOG
CHARLOTTE      RAIN      48  46  93 NE13G20   30.12S FOG
$$

VAZ100-191000-
MARINE

STATION/POSITION TIME  TEMP    WIND        PRES    WAVE   SWELL
                       AIR SEA DIR/SP/G            HT/PER HT/PER
                 (UTC) (F)     (DEG/KT/KT) (MB)    (FT/S) (FT/S)
44066 TX TWR #4  0900   42 44  290/  6/ 10 1024.7R   6/11   7/11
CAPE MAY NJ      0900   42 53   CALM  /  1 1024.5R
LEWES DE         0900   42 48   CALM  /  1 1023.9R
15NM E FENWICK I 0900   43 45              1024.2F   5/10
OCEAN-CITY-INLET 0900   44 47   40/  2/  3 1023.6S
WACHAPREAGUE VA  0900   44 52  340/  2/  3 1023.6F
THOMAS POINT MD  0900   48 51  340/  4/  4 1024.8R
GOOSES REEF MD   0900   47     220/  4/  4 1024.8S
COVE POINT MD    0900   46     220/  3/  4 1023.9R
SOLOMONS ISLAND  0900      51                N/A
BISHOPS HEAD MD  0900   47 53  160/  3/  4 1023.8R
PINEY POINT MD   0900          200/  4/  4   N/A
POTOMAC MD       0900   47     180/  4/  4 1023.4S
CAMBRIDGE MD     0900   44 55  120/  3/  3 1023.6S
LEWISETTA VA     0900   46 53  150/  2/  2 1023.7R
RAPPAHANNOCK LGT 0900           80/  6/  6 1024.1F
STINGRAY PT      0900   47      90/  2/  4 1023.8S
YORK RVR RNG VA  0900   47      30/ 14/ 15 1022.4F
YORKTOWN VA      0900   47 54   30/  4/  5 1023.2S
JAMESTOWN VA     0900   46      70/  4/  6   N/A
DOMINION TERM VA 0900   47      30/  3/  5 1023.3F
KIPTOPEKE VA     0900      52   60/  7/ 10   N/A
CHES BAY BRIDGE  0900   47 51   10/ 11/ 14 1023.1S
CAPE HENRY VA    0900   46     360/ 10/ 12   N/A
CHESAPEAKE LGHT  0800   45      20/ 13/ 14 1023.8F
WILLOUBY STN VA  0900   47      30/ 12/ 13 1022.3F
S CRANEY ISL VA  0900          360/  7/ 10 1023.3S
CAPE HENRY BUOY  0900      47                N/A     5/11   2/11
1ST LANDING BUOY 0900      45                N/A     4/11   3/11
64NM E OF VA BCH 0900   50 49   10/ 14/ 16 1021.8R   6/11   5/11
DUCK PIER NC     0900   47 50   20/ 13/ 14 1021.1S
44100 DUCK FRF   0900      48                N/A     6/12   3/12
44056 DUCK FRF   0900      47                N/A     5/11   2/11
OREGON INLET NC  0900   47 52  360/ 14/ 23 1020.5F
HATTERAS NC      0900   53 58   30/ 12/ 17 1019.3R
CAPE LOOKOUT NC  0800   56      20/ 16/ 21 1017.9F
FRYING PAN SHLS  0900   68 65  160/ 10/ 17 1013.8R   9/ 6   8/ 6
$$



USA.gov is the U.S. government's official web portal to all federal, state and local government web resources and services.